Dewpoint
28 28 27 23 24 26 27 23 22 23 26 28 28 28 29 30 29 29 30 30 29 28 27 27 27 27 28 32 33 34 35 36 36 37 37 37 37 37 37 37 37 37 37 37 37 37 37 37 37 37 36 37 37 37 37 37 37 37 37 36 36 36 36 36 37 38 39 40 41 41 41 41 41 41 40 40 41 41 42 42 42 42 42 42 43 43
28 28 28 23 23 25 28 24 23 24 27 27 28 28 29 28 28 28 28 29 28 28 27 27 27 27 26 30 32 34 35 35 36 36 37 37 37 37 37 37 37 37 37 37 37 37 37 37 36 36 36 36 37 37 37 37 36 36 35 35 35 35 35 36 37 37 39 40 41 41 41 41 40 40 39 40 41 41 42 41 41 41 41 42 42 42
28 28 28 25 24 25 28 26 24 24 26 27 28 28 28 27 27 27 27 28 28 28 27 27 27 27 26 28 31 33 34 35 36 36 36 36 36 37 37 37 37 37 37 37 37 37 37 36 36 35 35 36 36 36 36 36 35 35 35 34 34 35 35 36 37 37 38 39 40 40 40 40 39 39 39 40 41 41 41 41 41 41 42 42 42 42
27 27 28 27 26 26 27 28 27 27 28 28 28 28 26 26 27 27 27 27 27 27 27 27 27 27 27 27 29 32 34 35 35 36 36 36 36 36 37 37 37 37 37 37 37 36 36 35 35 35 35 35 35 35 35 35 34 34 34 34 34 35 35 36 36 37 37 38 38 38 38 38 38 38 39 40 41 41 41 41 41 41 41 42 41 41
26 27 28 28 28 28 28 28 28 28 30 29 28 27 26 26 27 27 27 27 27 27 27 27 27 27 26 26 28 31 34 34 35 35 36 36 36 36 37 37 37 37 37 37 36 36 35 35 35 35 35 35 35 35 34 34 34 34 34 34 34 34 35 35 36 36 36 37 37 37 37 37 37 38 38 39 39 39 40 40 40 40 41 41 41 41
27 28 29 30 30 30 30 29 30 30 29 28 28 27 27 26 27 27 27 27 27 27 27 27 27 26 26 27 29 32 33 34 35 35 35 36 36 36 37 37 37 37 37 36 36 35 35 35 34 35 35 35 34 34 34 34 33 33 33 33 33 34 34 34 34 35 35 35 36 36 37 37 37 37 37 37 37 37 37 38 38 39 39 39 39 39
28 29 30 31 31 31 31 30 30 30 29 28 28 27 27 27 27 27 26 27 27 27 27 27 26 26 26 27 29 32 32 33 34 34 35 35 36 36 37 37 37 37 36 36 35 35 34 34 34 34 34 34 34 34 33 33 33 33 33 33 33 33 33 33 33 34 34 35 35 35 35 36 36 36 36 36 36 36 37 37 37 37 38 38 39 39
28 30 30 31 31 31 31 30 30 30 29 28 28 28 28 28 28 28 26 26 26 26 26 26 25 25 25 26 28 29 30 30 31 32 33 34 35 36 37 37 37 36 35 35 34 34 34 34 34 34 34 34 33 33 33 32 32 32 32 32 32 32 33 33 34 34 34 35 35 35 35 35 36 36 36 36 37 37 37 37 37 37 38 38 39 39
29 30 30 31 31 31 30 30 29 29 29 28 28 28 28 28 28 28 27 25 25 25 25 25 25 25 26 26 27 28 29 30 30 31 32 32 34 35 36 36 35 35 34 34 34 34 34 34 34 34 34 33 33 32 32 32 32 32 32 32 32 33 33 34 34 35 35 35 36 36 36 36 37 37 37 37 37 37 37 37 37 38 38 39 39 40
30 30 30 31 31 31 30 30 30 29 28 28 28 28 28 27 27 26 25 25 25 25 25 25 25 25 26 27 27 28 30 31 32 33 35 34 35 35 34 33 33 33 33 34 34 34 34 34 34 34 33 32 32 32 32 31 32 32 32 32 32 33 34 35 35 36 36 36 37 37 37 37 38 38 38 37 37 37 37 37 37 38 38 38 39 39
30 31 31 31 31 31 30 30 30 30 29 28 28 27 26 25 25 25 24 24 25 25 25 25 26 26 26 27 28 28 29 30 32 33 35 35 35 34 33 32 32 32 33 33 34 34 34 34 33 33 32 32 31 31 31 31 31 31 32 32 33 33 34 35 36 36 37 37 37 37 38 38 38 38 37 37 37 37 37 37 37 37 37 37 37 37
31 31 31 32 31 31 31 31 31 31 30 28 26 25 24 24 24 24 24 25 25 25 25 26 26 27 27 28 28 29 30 31 31 31 31 31 31 31 31 31 31 32 32 33 33 33 33 33 32 32 31 30 30 30 30 30 31 31 32 32 33 34 35 35 36 36 37 37 37 37 37 37 37 37 37 37 37 37 37 37 36 36 36 36 37 37
31 32 32 32 32 31 31 31 31 31 30 28 27 26 26 26 25 25 25 25 26 26 26 26 27 28 28 29 29 30 31 31 30 28 27 27 28 28 28 28 28 29 29 30 30 30 32 31 31 30 29 29 29 29 30 30 31 32 32 32 33 34 35 35 36 36 36 36 36 36 36 36 36 36 36 36 36 36 36 36 36 36 36 37 37 37
32 32 32 32 32 32 31 31 31 31 30 28 28 27 27 27 27 26 26 26 26 27 27 27 28 28 30 30 31 31 29 27 26 26 26 27 28 28 28 28 28 28 28 28 27 27 29 28 28 27 28 28 28 28 29 30 31 32 32 32 33 34 34 35 35 35 36 36 36 35 35 35 35 35 36 36 36 36 37 36 36 37 37 37 37 38
32 32 32 32 31 31 32 32 32 31 30 28 28 28 27 27 27 26 26 26 27 27 28 28 29 30 30 30 29 28 26 26 26 27 27 27 28 27 27 27 27 26 26 25 25 25 27 26 24 23 24 25 27 28 29 30 31 32 32 32 33 33 34 34 34 35 35 35 35 35 35 35 36 36 36 36 37 37 37 37 37 37 37 37 37 38
34 33 32 32 32 32 32 32 31 30 29 28 28 27 27 27 27 27 27 27 27 28 28 28 28 29 29 28 27 26 26 26 27 26 26 25 25 25 26 25 24 23 24 24 24 23 23 23 22 22 23 25 28 29 30 30 31 32 32 32 33 33 33 33 34 34 34 35 35 35 36 36 36 37 37 37 37 37 37 37 37 37 37 37 37 38
34 34 33 33 32 32 32 32 31 30 29 29 28 27 27 27 27 27 27 28 28 28 28 28 28 28 27 26 26 27 28 27 26 26 24 23 23 23 23 23 23 23 23 23 23 23 22 21 21 22 23 26 28 29 30 30 31 32 32 32 32 32 32 33 33 33 34 34 35 35 36 36 36 37 37 37 37 37 37 37 37 38 38 38 38 38
34 34 33 33 32 32 33 33 33 32 30 28 28 27 27 27 27 27 28 28 28 28 28 28 28 28 26 25 25 26 28 27 25 24 23 22 21 22 23 23 23 23 23 23 22 22 21 20 20 21 24 28 29 29 30 31 31 32 32 32 32 32 32 32 33 33 34 34 35 35 35 36 36 37 37 37 37 37 37 38 38 38 38 39 39 39
34 34 34 33 33 33 33 32 30 29 28 27 27 27 27 27 27 28 28 28 28 29 29 29 29 28 27 26 26 27 27 26 25 23 22 21 21 22 22 23 23 23 23 22 21 21 20 20 22 25 28 28 29 29 30 31 31 31 31 31 31 31 32 32 32 33 33 34 34 35 35 35 36 36 37 37 37 37 38 38 39 39 39 39 39 39
35 35 34 33 33 33 32 31 30 30 29 29 28 27 26 27 27 28 28 29 29 30 31 30 30 28 27 26 26 26 26 25 24 23 21 21 21 21 22 22 22 22 20 20 20 20 20 20 21 23 27 28 29 29 30 30 31 31 31 31 31 31 31 32 32 33 33 34 34 34 35 35 35 36 36 37 37 38 38 38 38 39 39 39 39 39
34 34 32 32 31 31 31 30 30 30 31 31 29 28 27 27 28 28 28 29 30 31 32 30 29 28 26 26 25 25 25 24 23 22 21 21 21 21 21 21 21 20 19 19 20 20 20 20 20 22 25 27 28 29 30 30 30 30 30 30 30 30 31 31 32 32 33 33 33 34 34 34 35 35 36 37 37 37 37 37 38 38 38 38 39 39
33 32 30 29 29 30 31 30 31 32 32 32 30 29 28 28 28 28 29 29 30 30 30 28 27 26 26 26 25 25 24 23 23 22 22 22 21 21 21 20 20 19 19 19 19 19 19 20 20 22 26 28 29 29 30 30 29 29 29 30 30 30 30 31 31 32 32 32 33 33 34 34 35 35 35 36 36 36 37 37 37 37 37 37 38 38
32 31 31 29 29 30 31 31 31 32 32 32 31 30 29 29 29 29 30 31 31 30 28 26 26 25 25 25 24 23 23 23 23 23 23 22 21 20 20 19 19 19 19 19 19 19 20 20 21 23 26 28 29 29 29 29 29 29 29 29 29 30 30 30 31 31 32 32 32 33 33 34 34 35 35 35 35 36 36 36 37 37 37 37 37 37
30 30 31 31 31 31 31 31 31 31 31 31 31 31 31 31 31 31 32 32 30 28 25 24 23 23 23 23 23 22 23 23 23 23 23 22 20 20 19 19 19 19 19 19 19 19 20 20 21 22 24 27 28 28 28 28 28 28 28 29 29 29 29 30 30 31 31 32 32 32 33 33 34 34 34 35 35 35 36 36 36 37 37 37 37 37
31 32 32 32 33 33 33 33 33 33 32 32 31 31 32 32 33 32 31 29 27 25 23 21 20 20 20 22 22 21 22 22 23 23 22 21 20 19 20 19 19 19 19 19 20 20 20 21 22 22 23 24 26 28 28 28 28 28 28 28 28 28 29 29 30 30 31 31 32 32 32 33 33 34 34 34 35 35 35 36 36 36 37 36 36 36
35 35 35 36 37 37 38 38 38 38 37 36 35 34 33 33 32 30 28 26 24 23 22 20 19 19 20 20 20 20 22 21 22 23 22 21 20 19 20 19 19 19 19 20 20 21 21 22 22 21 21 22 24 26 27 27 27 27 27 28 28 28 28 29 29 30 30 31 31 32 32 32 33 33 34 34 34 35 35 35 36 36 36 36 36 35
37 37 37 37 38 38 38 39 39 40 40 40 40 39 37 33 30 28 26 24 23 23 23 21 20 20 20 20 19 20 22 23 23 22 21 21 20 19 19 19 20 20 20 20 21 22 23 22 21 20 19 19 21 23 26 26 26 26 26 27 27 27 28 28 28 29 29 30 31 31 32 32 32 33 33 34 34 34 35 35 35 35 36 35 35 35
37 37 37 37 38 38 38 38 39 39 40 40 40 40 37 32 29 27 25 23 23 23 23 23 22 21 20 20 20 20 21 22 23 22 22 21 20 20 20 20 20 21 21 21 22 23 23 21 20 19 18 19 19 21 23 25 25 25 26 26 26 27 27 27 28 28 29 29 30 31 32 32 32 33 33 33 34 34 34 35 35 35 35 35 34 34
37 37 37 38 38 38 38 38 38 39 39 39 39 38 36 31 28 28 26 24 24 24 24 24 23 22 22 21 21 21 21 21 22 23 22 21 21 20 20 21 21 22 22 22 22 21 20 19 18 17 17 19 20 20 20 22 23 23 24 25 25 26 26 26 27 28 28 29 30 30 31 32 32 32 33 33 33 34 34 34 35 35 34 34 34 33
33 34 35 35 36 35 35 34 34 36 37 37 37 37 36 31 29 28 27 25 25 25 24 24 24 23 23 23 21 20 19 19 21 22 22 22 21 21 21 21 22 23 23 23 21 19 17 17 17 18 18 19 19 18 18 19 20 20 21 23 23 24 25 26 26 27 28 28 29 30 30 31 32 32 32 32 33 33 34 34 34 34 34 34 33 33
31 31 31 31 30 29 29 29 30 32 34 36 36 35 33 30 29 28 27 26 25 25 24 23 23 23 23 23 21 19 19 19 22 24 23 23 22 22 22 22 23 23 25 23 20 18 16 16 17 18 18 18 17 17 17 17 18 18 18 19 20 22 23 24 25 26 27 28 28 29 30 30 31 32 32 32 33 33 34 34 34 34 34 33 33 32
32 32 32 30 28 27 27 28 28 28 30 32 33 32 32 31 29 28 27 26 25 24 23 22 21 21 22 23 22 21 20 20 23 25 25 24 23 23 23 23 24 24 24 23 20 18 16 16 16 17 17 17 16 16 17 17 17 17 17 18 18 19 22 23 24 24 25 27 28 28 29 30 30 31 32 32 33 33 34 34 34 34 33 33 33 32
34 34 32 32 30 28 28 27 26 27 28 29 29 29 30 30 30 29 26 25 25 24 23 22 21 20 20 22 23 23 23 22 24 26 27 26 25 24 24 24 24 24 23 21 20 19 17 16 16 16 16 16 16 16 16 17 17 17 17 17 17 18 20 21 22 23 23 25 26 28 28 29 30 31 31 32 32 33 33 33 34 33 33 33 32 32
34 34 34 33 31 28 27 26 25 26 28 27 28 28 28 28 28 28 27 26 25 24 23 23 21 20 20 22 23 23 23 22 25 28 29 27 26 25 25 25 24 23 22 20 19 18 17 17 16 16 15 16 16 16 15 15 16 16 16 16 16 16 18 19 20 21 22 23 24 25 27 28 29 30 31 32 32 32 33 33 33 33 33 32 32 32
32 32 32 31 29 28 28 26 26 26 27 27 27 27 27 26 25 25 26 25 25 24 22 22 22 22 22 23 23 23 23 21 24 28 29 28 27 26 25 24 23 22 20 19 18 18 17 16 16 16 16 15 15 15 15 14 15 16 16 16 16 16 17 18 19 20 21 22 23 23 24 26 27 28 30 31 31 32 32 32 33 33 33 33 32 32
30 30 31 29 28 28 28 28 28 27 27 26 25 25 24 23 22 21 21 22 23 25 24 23 22 22 22 23 23 23 23 22 24 27 28 28 27 26 25 23 22 21 20 19 18 17 17 16 17 17 16 15 14 14 14 15 16 16 16 16 17 17 18 19 20 20 21 22 23 23 24 26 27 28 29 30 31 32 32 32 32 32 32 32 32 32
29 29 29 28 28 28 28 28 27 27 26 25 23 23 23 20 20 20 18 17 19 22 24 25 25 24 24 23 23 23 24 24 24 24 26 26 27 27 25 23 22 22 19 18 17 17 17 16 16 16 15 14 14 14 14 15 16 16 15 16 17 18 19 20 21 21 21 22 23 24 25 27 28 28 29 30 30 31 31 31 32 32 32 32 32 32
28 28 28 26 26 26 27 27 27 27 27 26 25 23 21 19 18 18 17 16 16 17 19 21 22 23 26 27 25 23 23 22 22 22 23 25 26 26 25 23 22 22 19 18 17 17 16 15 15 14 14 14 14 15 16 15 15 15 15 17 18 19 19 20 21 22 22 23 24 25 26 27 27 27 28 28 28 28 28 28 29 30 31 31 32 32
27 27 25 25 25 26 26 27 28 28 28 27 24 22 19 19 19 18 18 17 17 17 17 18 19 19 18 20 23 26 26 24 23 22 22 22 23 23 23 21 20 19 18 17 16 15 15 15 15 14 14 14 14 15 15 15 15 15 16 17 18 19 19 20 21 22 23 23 24 25 25 26 26 26 26 26 26 27 27 27 28 29 29 29 30 31
27 26 25 26 27 26 27 28 27 26 24 25 25 24 22 22 21 20 19 19 19 19 18 17 18 19 19 21 23 23 24 23 23 22 19 17 16 18 19 19 18 17 17 15 14 14 14 15 15 16 16 15 15 15 15 15 15 16 18 17 17 18 19 20 21 22 22 23 23 24 24 25 25 25 25 25 25 26 26 26 27 28 28 28 28 28
28 27 25 26 27 28 28 28 26 25 23 23 22 22 23 23 22 22 22 21 20 20 19 19 19 18 16 14 14 16 19 19 20 19 14 14 13 13 16 16 17 16 16 14 14 14 14 15 15 16 16 15 15 16 16 16 17 19 19 18 17 17 19 20 21 22 22 23 23 24 25 25 25 25 25 25 25 25 26 26 27 27 28 28 28 28
29 28 26 26 26 27 26 24 24 25 24 23 22 23 23 22 21 20 20 20 19 18 17 17 16 16 16 16 15 14 14 14 16 17 14 13 11 10 11 14 16 16 16 15 14 14 15 16 16 16 16 16 16 15 15 15 17 18 19 18 18 18 19 20 21 21 21 22 23 23 25 25 25 24 25 25 25 26 27 27 27 28 28 28 28 28
29 28 27 27 26 26 26 27 27 26 24 23 23 23 21 20 20 21 22 20 19 18 18 16 15 15 15 15 15 15 15 12 11 13 14 10 9 9 10 11 13 14 15 14 15 15 15 17 17 16 16 16 16 15 15 15 16 17 17 18 18 18 17 18 19 20 21 22 23 23 24 24 24 24 25 25 25 25 26 27 28 29 29 28 28 28
28 28 28 27 25 25 26 26 26 25 24 23 23 23 20 19 20 22 21 19 17 16 15 13 12 12 12 12 13 14 15 13 11 11 14 17 16 13 13 11 11 12 14 13 14 15 15 16 16 15 14 14 14 15 15 15 15 16 16 18 18 18 18 19 19 20 21 22 23 24 24 24 24 24 24 24 25 25 25 26 26 26 28 28 28 28
26 27 28 28 27 26 26 25 25 24 23 24 23 22 19 20 21 22 20 17 15 14 12 12 13 14 13 13 13 13 13 13 14 14 14 19 23 23 18 15 13 12 12 13 13 14 14 15 15 15 15 14 14 14 15 15 15 16 17 18 19 19 19 19 20 20 21 22 23 23 24 24 24 23 23 24 24 25 25 26 26 26 27 27 28 28
25 27 28 28 27 27 27 26 24 23 23 23 23 21 19 18 18 19 19 16 14 12 12 13 14 15 15 15 14 12 12 13 14 16 16 15 14 14 16 18 18 17 15 15 15 15 15 16 16 16 16 14 14 14 14 14 14 15 16 18 18 19 19 19 20 20 21 22 22 23 23 23 23 23 23 23 24 25 25 26 27 27 28 28 28 28
26 27 27 27 27 26 26 24 23 23 23 23 21 19 18 16 15 15 15 14 13 13 14 13 13 13 14 14 12 11 13 14 15 16 15 15 14 14 14 16 18 19 18 18 18 18 18 18 16 15 14 13 12 11 12 12 13 14 15 17 18 18 18 18 19 21 22 22 22 22 23 23 23 23 23 23 24 25 26 27 28 28 29 29 29 29
28 28 28 27 26 25 24 23 23 22 22 21 19 18 17 16 16 15 13 13 14 15 14 12 12 12 11 10 11 13 15 15 15 15 15 16 16 16 16 15 16 17 19 19 20 20 19 19 17 15 14 12 10 10 10 10 12 14 16 17 18 17 17 18 19 20 21 22 22 23 23 23 23 23 23 23 24 25 26 28 29 29 30 30 30 30
29 28 28 28 26 24 23 22 21 21 22 20 18 16 15 18 21 21 15 14 14 14 14 14 14 12 11 10 11 14 16 16 15 14 14 16 18 18 15 14 14 15 15 15 15 14 16 17 18 18 17 14 12 10 12 13 14 15 17 17 17 17 17 18 19 20 21 22 23 23 23 23 24 24 24 24 24 25 27 28 28 29 29 30 31 31
29 29 29 28 26 24 23 22 21 21 21 20 18 16 14 14 15 17 17 16 15 14 12 13 13 12 11 10 11 13 15 14 13 13 16 19 19 18 13 13 14 15 15 14 14 14 14 14 16 19 21 20 17 14 13 14 15 16 16 16 17 17 17 18 19 20 21 22 23 23 23 24 24 25 25 25 26 26 27 27 27 28 29 30 31 32
28 28 28 27 26 24 23 22 21 21 20 19 18 16 14 13 14 14 14 15 14 14 12 11 11 11 13 13 14 15 15 13 13 14 17 19 19 17 13 13 14 15 15 14 14 14 14 13 13 14 17 21 20 18 15 14 15 16 16 16 17 17 17 18 19 20 22 22 23 23 23 24 24 25 26 26 26 26 26 26 26 27 28 29 30 31